Time,TemperatureF,DewpointF,PressureIn,WindDirection,WindDirectionDegrees,WindSpeedMPH,WindSpeedGustMPH,Humidity,HourlyPrecipIn,Conditions,Clouds,dailyrainin,SoftwareType,DateUTC
2013-07-12 05:22:00,48.0,44.0,-100.00,ESE,114,0.0,2.0,86,0.00,,,0.05,,2013-07-12 11:22:00,
2013-07-12 05:32:00,47.0,43.0,-100.00,ESE,114,0.0,1.0,85,0.00,,,0.05,,2013-07-12 11:32:00,
2013-07-12 05:43:00,47.0,42.0,-100.00,ESE,113,0.0,1.0,84,0.00,,,0.05,,2013-07-12 11:43:00,
2013-07-12 05:53:00,46.0,42.0,-100.00,ESE,114,0.0,0.0,87,0.00,,,0.05,,2013-07-12 11:53:00,
2013-07-12 06:01:00,46.0,42.0,-100.00,ESE,113,0.0,1.0,85,0.00,,,0.05,,2013-07-12 12:01:00,
2013-07-12 06:11:00,45.0,40.0,-100.00,ESE,114,0.0,0.0,84,0.00,,,0.05,,2013-07-12 12:11:00,
2013-07-12 06:22:00,45.0,41.0,-100.00,ESE,114,0.0,1.0,86,0.00,,,0.05,,2013-07-12 12:22:00,
2013-07-12 06:32:00,45.0,41.0,-100.00,ESE,114,0.0,0.0,87,0.00,,,0.05,,2013-07-12 12:32:00,
2013-07-12 06:43:00,45.0,41.0,-100.00,ESE,113,0.0,0.0,87,0.00,,,0.05,,2013-07-12 12:43:00,
2013-07-12 06:52:00,45.0,41.0,-100.00,ESE,113,0.0,0.0,87,0.00,,,0.05,,2013-07-12 12:52:00,
2013-07-12 07:01:00,45.0,41.0,-100.00,ESE,114,0.0,0.0,87,0.00,,,0.05,,2013-07-12 13:01:00,
2013-07-12 07:11:00,45.0,42.0,-100.00,ESE,114,0.0,0.0,88,0.00,,,0.05,,2013-07-12 13:11:00,
2013-07-12 07:43:00,47.0,44.0,-100.00,ESE,114,0.0,1.0,88,0.00,,,0.05,,2013-07-12 13:43:00,
2013-07-12 07:53:00,47.0,44.0,-100.00,ESE,114,0.0,1.0,88,0.00,,,0.05,,2013-07-12 13:53:00,
2013-07-12 08:02:00,47.0,44.0,-100.00,ESE,114,0.0,0.0,88,0.00,,,0.05,,2013-07-12 14:02:00,
2013-07-12 08:11:00,48.0,45.0,-100.00,ESE,114,0.0,0.0,88,0.00,,,0.05,,2013-07-12 14:11:00,
2013-07-12 08:32:00,54.0,48.0,-100.00,ESE,114,0.0,2.0,80,0.00,,,0.05,,2013-07-12 14:32:00,
2013-07-12 08:43:00,56.0,49.0,-100.00,SSW,210,0.0,3.0,78,0.00,,,0.05,,2013-07-12 14:43:00,
2013-07-12 08:53:00,56.0,49.0,-100.00,South,180,0.0,4.0,76,0.00,,,0.05,,2013-07-12 14:53:00,
2013-07-12 09:11:00,57.0,48.0,-100.00,South,179,0.0,1.0,73,0.00,,,0.05,,2013-07-12 15:11:00,
2013-07-12 09:22:00,57.0,50.0,-100.00,South,176,0.0,1.0,76,0.00,,,0.05,,2013-07-12 15:22:00,
2013-07-12 09:52:00,63.0,51.0,-100.00,SSW,203,0.0,1.0,64,0.00,,,0.05,,2013-07-12 15:52:00,
2013-07-12 10:11:00,65.0,48.0,-100.00,SSW,192,0.0,2.0,55,0.00,,,0.05,,2013-07-12 16:11:00,
2013-07-12 10:42:00,67.0,50.0,-100.00,WSW,241,0.0,1.0,54,0.00,,,0.05,,2013-07-12 16:42:00,
2013-07-12 10:53:00,67.0,50.0,-100.00,WSW,241,0.0,1.0,54,0.00,,,0.05,,2013-07-12 16:53:00,
2013-07-12 11:34:00,70.0,48.0,-100.00,SE,137,0.0,7.0,45,0.00,,,0.05,,2013-07-12 17:34:00,
2013-07-12 11:43:00,71.0,45.0,-100.00,WSW,251,2.0,5.0,40,0.00,,,0.05,,2013-07-12 17:43:00,
2013-07-12 11:52:00,70.0,45.0,-100.00,SW,235,2.0,6.0,41,0.00,,,0.05,,2013-07-12 17:52:00,
2013-07-12 12:01:00,71.0,43.0,-100.00,West,268,1.0,5.0,37,0.00,,,0.05,,2013-07-12 18:01:00,
2013-07-12 12:11:00,72.0,43.0,-100.00,SW,232,1.0,5.0,35,0.00,,,0.05,,2013-07-12 18:11:00,
2013-07-12 12:52:00,75.0,42.0,-100.00,SSW,195,1.0,3.0,31,0.00,,,0.05,,2013-07-12 18:52:00,
2013-07-12 13:02:00,75.0,38.0,-100.00,WSW,247,0.0,10.0,26,0.00,,,0.05,,2013-07-12 19:02:00,
2013-07-12 13:11:00,75.0,41.0,-100.00,South,172,0.0,4.0,29,0.00,,,0.05,,2013-07-12 19:11:00,
2013-07-12 13:44:00,73.0,34.0,-100.00,NNW,332,5.0,10.0,24,0.00,,,0.05,,2013-07-12 19:44:00,
2013-07-12 13:52:00,73.0,35.0,-100.00,SSW,213,3.0,8.0,25,0.00,,,0.05,,2013-07-12 19:52:00,
2013-07-12 14:01:00,76.0,33.0,-100.00,WNW,288,2.0,11.0,21,0.00,,,0.05,,2013-07-12 20:01:00,
2013-07-12 14:11:00,73.0,32.0,-100.00,WSW,256,0.0,10.0,22,0.00,,,0.05,,2013-07-12 20:11:00,
2013-07-12 14:22:00,73.0,35.0,-100.00,North,351,5.0,9.0,25,0.00,,,0.05,,2013-07-12 20:22:00,
2013-07-12 14:32:00,72.0,34.0,-100.00,WNW,298,0.0,7.0,25,0.00,,,0.05,,2013-07-12 20:32:00,
2013-07-12 14:52:00,73.0,36.0,-100.00,SE,126,2.0,7.0,26,0.00,,,0.05,,2013-07-12 20:52:00,
2013-07-12 15:11:00,74.0,35.0,-100.00,ENE,75,0.0,8.0,24,0.00,,,0.05,,2013-07-12 21:11:00,
2013-07-12 15:22:00,76.0,36.0,-100.00,ESE,109,1.0,4.0,23,0.00,,,0.05,,2013-07-12 21:22:00,
2013-07-12 15:42:00,76.0,36.0,-100.00,West,266,2.0,7.0,23,0.00,,,0.05,,2013-07-12 21:42:00,
2013-07-12 15:53:00,75.0,35.0,-100.00,NW,309,1.0,5.0,23,0.00,,,0.05,,2013-07-12 21:53:00,
2013-07-12 16:01:00,74.0,35.0,-100.00,NW,323,5.0,10.0,24,0.00,,,0.05,,2013-07-12 22:01:00,
2013-07-12 16:42:00,74.0,34.0,-100.00,WNW,288,5.0,10.0,23,0.00,,,0.05,,2013-07-12 22:42:00,
2013-07-12 16:52:00,73.0,34.0,-100.00,West,263,6.0,15.0,24,0.00,,,0.05,,2013-07-12 22:52:00,
2013-07-12 17:02:00,72.0,34.0,-100.00,West,267,6.0,14.0,25,0.00,,,0.05,,2013-07-12 23:02:00,
2013-07-12 17:11:00,72.0,34.0,-100.00,West,270,5.0,14.0,25,0.00,,,0.05,,2013-07-12 23:11:00,
2013-07-12 17:52:00,72.0,35.0,-100.00,WSW,240,3.0,10.0,26,0.00,,,0.05,,2013-07-12 23:52:00,
2013-07-12 18:01:00,74.0,34.0,-100.00,WNW,289,4.0,9.0,23,0.00,,,0.05,,2013-07-13 00:01:00,
2013-07-12 18:11:00,74.0,34.0,-100.00,West,280,5.0,11.0,23,0.00,,,0.05,,2013-07-13 00:11:00,
2013-07-12 18:32:00,73.0,36.0,-100.00,SW,215,0.0,6.0,26,0.00,,,0.05,,2013-07-13 00:32:00,
2013-07-12 18:43:00,73.0,38.0,-100.00,SSE,159,0.0,4.0,28,0.00,,,0.05,,2013-07-13 00:43:00,
2013-07-12 18:52:00,73.0,38.0,-100.00,SSE,163,0.0,4.0,28,0.00,,,0.05,,2013-07-13 00:52:00,
2013-07-12 19:01:00,73.0,37.0,-100.00,SW,233,2.0,6.0,27,0.00,,,0.05,,2013-07-13 01:01:00,
2013-07-12 19:52:00,71.0,38.0,-100.00,SSE,159,0.0,1.0,30,0.00,,,0.05,,2013-07-13 01:52:00,
2013-07-12 20:02:00,71.0,38.0,-100.00,SSE,168,0.0,3.0,30,0.00,,,0.05,,2013-07-13 02:02:00,
2013-07-12 20:11:00,71.0,37.0,-100.00,South,190,1.0,3.0,29,0.00,,,0.05,,2013-07-13 02:11:00,
2013-07-12 20:22:00,72.0,36.0,-100.00,SSW,198,1.0,5.0,27,0.00,,,0.05,,2013-07-13 02:22:00,
2013-07-12 20:32:00,72.0,36.0,-100.00,South,188,1.0,6.0,27,0.00,,,0.05,,2013-07-13 02:32:00,
2013-07-12 20:52:00,71.0,36.0,-100.00,SSW,192,0.0,1.0,28,0.00,,,0.05,,2013-07-13 02:52:00,
2013-07-12 21:22:00,65.0,38.0,-100.00,SSW,192,0.0,0.0,37,0.00,,,0.05,,2013-07-13 03:22:00,
2013-07-12 21:33:00,63.0,36.0,-100.00,SSW,192,0.0,1.0,37,0.00,,,0.05,,2013-07-13 03:33:00,
2013-07-12 21:43:00,62.0,37.0,-100.00,SSW,192,0.0,0.0,40,0.00,,,0.05,,2013-07-13 03:43:00,
2013-07-12 21:53:00,61.0,38.0,-100.00,SSW,192,0.0,0.0,43,0.00,,,0.05,,2013-07-13 03:53:00,
2013-07-12 22:01:00,59.0,38.0,-100.00,SSW,192,0.0,0.0,46,0.00,,,0.05,,2013-07-13 04:01:00,